Miscellaneous Local Product
Issued by NWS North Platte, NE

Home | Current Version | Previous Version | Graphics & Text | Print | Product List | Glossary On
Versions: 1 2 3 4 5 6 7 8 9 10 11 12 13 14 15 16 17 18 19 20 21 22 23 24 25 26 27 28 29 30 31 32 33 34 35 36 37 38 39 40 41 42 43 44 45 46 47 48 49 50
000
AXUS43 KLBF 220910
MISLBF


WESTERN AND NORTH CENTRAL NEBRASKA HOURLY WEATHER ROUNDUP
NATIONAL WEATHER SERVICE NORTH PLATTE NE
300 AM CST MON JAN 22 2018

NOTE: "FAIR" INDICATES FEW OR NO CLOUDS BELOW 12,000 FEET WITH NO
SIGNIFICANT WEATHER AND/OR OBSTRUCTIONS TO VISIBILITY.

NOTE: STATIONS NOT REPORTING VARIABLES SUCH AS SKY/WEATHER OR
PRESSURE ARE PROVIDED BY RAWS AND APRS NETWORKS AND ARE NOT UNDER
NATIONAL WEATHER SERVICE QUALITY CONTROL.

...OBSERVATIONS IN AND NEAR THE EASTERN PANHANDLE OF NEBRASKA...

CITY           SKY/WX    TMP DP  RH WIND       PRES   REMARKS
PINE RIDGE     MOCLDY    18  16  92 SW6       29.95R WCI  10
GORDON         FAIR      25  20  82 N17G23    29.91R WCI  12
CHADRON        PTCLDY    20  14  77 NW15      29.98R WCI   6
ALLIANCE       CLOUDY    24  19  81 N20       29.91R WCI  10
SIDNEY         CLOUDY    25  20  81 N23G30    29.91R WCI  10
CRESCENT LAKE    N/A     24  21  87 N20G30      N/A  WCI  10
$$

...OBSERVATIONS IN NORTHERN NEBRASKA AND FAR SOUTHERN SOUTH DAKOTA...

CITY           SKY/WX    TMP DP  RH WIND       PRES   REMARKS
WINNER         CLOUDY    28  26  92 N17       29.91R FOG     WCI  16
VALENTINE      LGT SNOW  28  25  88 N20G29    29.89R FOG     WCI  15
AINSWORTH      CLOUDY    27  27  99 N28       29.83R WCI  12
O`NEILL        LGT SNOW  30  30 100 N26G35    29.74F VSB 1   WCI  16
THEDFORD       CLOUDY    28  27  93 N25G35    29.80S WCI  14
BROKEN BOW     FOG       31  28  89 N32G44    29.68R VSB 3/4 WCI  16
ORD            LGT SNOW  31  30  96 N21G33    29.66R FOG     WCI  18
ALBION         LGT SNOW  33  31  93 N30G41    29.57F WCI  19
VALENTINE NWR    N/A     26  25  96 N20G30      N/A  WCI  12
HALSEY           N/A     27  26  97 N16G37      N/A  WCI  15
BUTTE            N/A     28  27  96 N17G28      N/A  WCI  16
CHAMBERS         N/A     30  30  99 N9          N/A  WCI  22
EWING            N/A     32  31  96 NE10        N/A  WCI  24
$$

...OBSERVATIONS IN SOUTHWEST NEBRASKA AND FAR NORTHEAST COLORADO...

CITY           SKY/WX    TMP DP  RH WIND       PRES   REMARKS
WRAY           CLOUDY    28  28 100 NW29G36   29.85R WCI  13
HOLYOKE        CLOUDY    30  27  86 NW25G36   29.87R WCI  16
IMPERIAL       CLOUDY    27  27 100 NW33G43   29.80R FOG     WCI  10
OGALLALA       CLOUDY    29  27  92 NW26G33   29.85R WCI  15
NORTH PLATTE   FOG       29  26  89 N25G33    29.75R VSB 1   WCI  14
MCCOOK         MIX PCPN  30  29  96 N35G45    29.66R FOG     WCI  14
LEXINGTON      CLOUDY    33  30  88 N15       29.64R FOG     WCI  23
STAPLETON        N/A     26  25  96 N9G20       N/A  WCI  17
GOTHENBURG       N/A     30  30 100 N16         N/A  WCI  19
CALLAWAY         N/A     28  27  96 N22         N/A  WCI  14
$$

...OBSERVATIONS IN CENTRAL LINCOLN COUNTY AREA...

CITY           SKY/WX    TMP DP  RH WIND       PRES   REMARKS
N.P. AIRPORT   FOG       29  26  89 N25G33    29.75R VSB 1   WCI  14
N.P. DOWNTOWN    N/A     28  27  97 N12G21      N/A  WCI  18
N.P. SOUTHEAST   N/A     28  27  95 N13G24      N/A  WCI  17
N.P. HILLCREST   N/A     29  28  95 N28G40      N/A  WCI  14
$$

...SOME OBSERVATIONS FROM AROUND THE REGION...

CITY           SKY/WX    TMP DP  RH WIND       PRES   REMARKS
DENVER         CLOUDY    23  11  60 NW7       29.95R WCI  15
BERTHOUD PASS  HVY SNOW  -6 -17  59 N22       29.80R VSB<1/4 WCI -31
GRAND JUNCTION PTCLDY    10   7  87 CALM      30.22R
LARAMIE        PTCLDY     4   3  96 E6        29.95R WCI  -7
CHEYENNE       PTCLDY    18  10  71 NW17G26   29.93R WCI   3
CASPER         MOCLDY    12   6  77 W12       30.02S WCI  -2
BISMARCK       FOG       18  17  96 CALM      30.02F VSB 1/4
RAPID CITY     CLEAR     28  18  66 NW18      29.95S WCI  15
PIERRE         CLOUDY    24  24 100 N7        29.97R FOG     WCI  16
SIOUX FALLS    CLOUDY    31  28  89 NE20G33   29.78S WCI  19
OMAHA          CLOUDY    37  35  92 N15G26    29.46F WCI  28
GRAND ISLAND   CLOUDY    32  31  96 N32G40    29.54F WCI  17
SCOTTSBLUFF    CLOUDY    26  17  68 NW20      29.96R WCI  12
KANSAS CITY    MOCLDY    47  46  97 SW8       29.44R FOG
HILL CITY      SNOW      31  31 100 NW26G35   29.57S VSB 1/2 WCI  17
WICHITA        MOCLDY    36  32  85 SW13      29.53F WCI  27
DODGE CITY     MIX PCPN  31  25  78 NW35G49   29.62S WCI  15
OKLAHOMA CITY  PTCLDY    38  26  62 W21       29.77R WCI  28
DALLAS         CLEAR     56  17  21 W20G29    29.85R
AMARILLO       CLEAR     29  17  61 NW16G26   29.94R WCI  17
$$




USA.gov is the U.S. government's official web portal to all federal, state and local government web resources and services.